When you browse on this site, cookies collect data to enhance your experience and personalize the content and advertising you see.
Visit our Privacy Policy to learn more. By continuing to use the site, you agree to this use of cookies and data.
  • Em Portugal
  • Lista de países
  • Para 7 dias
  • Temperatura da água
  • Mapa do tempo
  • Widgets de tempo
  • user-avatar
    Iniciar Sessão

    Previsão horária em Bakhtaran

    Hoje, 26 Agosto, Segunda-feira

    Tempo Temperatura Precipitação Vento Pressão Humidade
    00:00 +24°C° 0 mm 1 m/s 636 mmHg 28%
    01:00 +23°C° 0 mm 1 m/s 636 mmHg 29%
    02:00 +22°C° 0 mm 1 m/s 636 mmHg 30%
    03:00 +20°C° 0 mm 0 m/s 635 mmHg 30%
    04:00 +20°C° 0 mm 0 m/s 636 mmHg 30%
    05:00 +20°C° 0 mm 0 m/s 636 mmHg 30%
    06:00 +21°C° 0 mm 0 m/s 636 mmHg 30%
    07:00 +24°C° 0 mm 0 m/s 638 mmHg 25%
    08:00 +30°C° 0 mm 1 m/s 639 mmHg 20%
    09:00 +33°C° 0 mm 1 m/s 640 mmHg 15%
    10:00 +35°C° 0 mm 1 m/s 640 mmHg 13%
    11:00 +37°C° 0 mm 2 m/s 640 mmHg 10%
    12:00 +39°C° 0 mm 3 m/s 640 mmHg 8%
    13:00 +40°C° 0 mm 4 m/s 640 mmHg 7%
    14:00 +40°C° 0 mm 6 m/s 640 mmHg 6%
    15:00 +41°C° 0 mm 7 m/s 639 mmHg 6%
    16:00 +39°C° 0 mm 6 m/s 639 mmHg 7%
    17:00 +36°C° 0 mm 5 m/s 638 mmHg 8%
    18:00 +34°C° 0 mm 4 m/s 638 mmHg 10%
    19:00 +32°C° 0 mm 4 m/s 638 mmHg 13%
    20:00 +29°C° 0 mm 3 m/s 637 mmHg 16%
    21:00 +26°C° 0 mm 3 m/s 637 mmHg 18%
    22:00 +26°C° 0 mm 2 m/s 637 mmHg 20%
    23:00 +25°C° 0 mm 2 m/s 637 mmHg 21%

    Amanhã, 27 Agosto, Terça-feira

    Tempo Temperatura Precipitação Vento Pressão Humidade
    00:00 +24°C° 0 mm 2 m/s 636 mmHg 22%
    01:00 +23°C° 0 mm 2 m/s 636 mmHg 24%
    02:00 +22°C° 0 mm 1 m/s 636 mmHg 25%
    03:00 +22°C° 0 mm 1 m/s 635 mmHg 26%
    04:00 +22°C° 0 mm 1 m/s 636 mmHg 27%
    05:00 +22°C° 0 mm 1 m/s 636 mmHg 27%
    06:00 +22°C° 0 mm 1 m/s 636 mmHg 27%
    07:00 +25°C° 0 mm 1 m/s 637 mmHg 23%
    08:00 +29°C° 0 mm 1 m/s 638 mmHg 19%
    09:00 +32°C° 0 mm 1 m/s 639 mmHg 16%
    10:00 +35°C° 0 mm 2 m/s 640 mmHg 13%
    11:00 +37°C° 0 mm 2 m/s 640 mmHg 11%
    12:00 +38°C° 0 mm 2 m/s 640 mmHg 9%
    13:00 +39°C° 0 mm 3 m/s 640 mmHg 8%
    14:00 +40°C° 0 mm 4 m/s 640 mmHg 8%
    15:00 +41°C° 0 mm 5 m/s 639 mmHg 7%
    16:00 +38°C° 0 mm 4 m/s 639 mmHg 7%
    17:00 +36°C° 0 mm 4 m/s 638 mmHg 8%
    18:00 +34°C° 0 mm 4 m/s 638 mmHg 9%
    19:00 +32°C° 0 mm 4 m/s 637 mmHg 11%
    20:00 +28°C° 0 mm 3 m/s 637 mmHg 13%
    21:00 +26°C° 0 mm 3 m/s 636 mmHg 15%
    22:00 +25°C° 0 mm 3 m/s 636 mmHg 16%
    23:00 +24°C° 0 mm 2 m/s 636 mmHg 18%

    Depois de amanhã, 28 Agosto, Quarta-feira

    Tempo Temperatura Precipitação Vento Pressão Humidade
    00:00 +24°C° 0 mm 2 m/s 636 mmHg 19%
    01:00 +23°C° 0 mm 2 m/s 635 mmHg 21%
    02:00 +22°C° 0 mm 1 m/s 635 mmHg 22%
    03:00 +21°C° 0 mm 1 m/s 635 mmHg 24%
    04:00 +22°C° 0 mm 1 m/s 635 mmHg 24%
    05:00 +22°C° 0 mm 1 m/s 635 mmHg 24%
    06:00 +20°C° 0 mm 0 m/s 636 mmHg 25%
    07:00 +26°C° 0 mm 1 m/s 637 mmHg 21%
    08:00 +29°C° 0 mm 1 m/s 638 mmHg 17%
    09:00 +33°C° 0 mm 1 m/s 639 mmHg 13%
    10:00 +35°C° 0 mm 2 m/s 639 mmHg 11%
    11:00 +37°C° 0 mm 3 m/s 639 mmHg 9%
    12:00 +38°C° 0 mm 3 m/s 640 mmHg 8%
    13:00 +39°C° 0 mm 5 m/s 639 mmHg 7%
    14:00 +39°C° 0 mm 6 m/s 639 mmHg 7%
    15:00 +40°C° 0 mm 8 m/s 638 mmHg 6%
    16:00 +38°C° 0 mm 7 m/s 638 mmHg 8%
    17:00 +35°C° 0 mm 6 m/s 638 mmHg 9%
    18:00 +33°C° 0 mm 6 m/s 637 mmHg 11%
    19:00 +30°C° 0 mm 5 m/s 637 mmHg 13%
    20:00 +28°C° 0 mm 4 m/s 637 mmHg 16%
    21:00 +26°C° 0 mm 3 m/s 637 mmHg 18%
    22:00 +25°C° 0 mm 2 m/s 636 mmHg 19%
    23:00 +24°C° 0 mm 2 m/s 636 mmHg 21%

    29 Agosto, Quinta-feira

    Tempo Temperatura Precipitação Vento Pressão Humidade
    00:00 +22°C° 0 mm 1 m/s 636 mmHg 22%
    01:00 +22°C° 0 mm 1 m/s 635 mmHg 23%
    02:00 +21°C° 0 mm 1 m/s 635 mmHg 24%
    03:00 +21°C° 0 mm 1 m/s 635 mmHg 25%
    04:00 +21°C° 0 mm 1 m/s 635 mmHg 25%
    05:00 +21°C° 0 mm 1 m/s 636 mmHg 24%
    06:00 +21°C° 0 mm 1 m/s 636 mmHg 24%
    07:00 +25°C° 0 mm 1 m/s 637 mmHg 20%
    08:00 +28°C° 0 mm 1 m/s 638 mmHg 16%
    09:00 +32°C° 0 mm 2 m/s 639 mmHg 12%
    10:00 +35°C° 0 mm 2 m/s 639 mmHg 10%
    11:00 +36°C° 0 mm 2 m/s 640 mmHg 9%
    12:00 +38°C° 0 mm 2 m/s 640 mmHg 7%
    13:00 +38°C° 0 mm 2 m/s 639 mmHg 7%
    14:00 +39°C° 0 mm 3 m/s 639 mmHg 6%
    15:00 +39°C° 0 mm 3 m/s 639 mmHg 6%
    16:00 +37°C° 0 mm 3 m/s 638 mmHg 7%
    17:00 +35°C° 0 mm 3 m/s 637 mmHg 8%
    18:00 +33°C° 0 mm 3 m/s 637 mmHg 9%
    19:00 +30°C° 0 mm 3 m/s 637 mmHg 11%
    20:00 +28°C° 0 mm 3 m/s 637 mmHg 13%
    21:00 +26°C° 0 mm 3 m/s 637 mmHg 15%
    22:00 +25°C° 0 mm 3 m/s 636 mmHg 16%
    23:00 +24°C° 0 mm 2 m/s 636 mmHg 17%

    30 Agosto, Sexta-feira

    Tempo Temperatura Precipitação Vento Pressão Humidade
    00:00 +24°C° 0 mm 2 m/s 636 mmHg 17%
    01:00 +23°C° 0 mm 2 m/s 635 mmHg 19%
    02:00 +22°C° 0 mm 1 m/s 635 mmHg 20%
    03:00 +21°C° 0 mm 1 m/s 635 mmHg 22%
    04:00 +21°C° 0 mm 1 m/s 635 mmHg 23%
    05:00 +21°C° 0 mm 1 m/s 635 mmHg 23%
    06:00 +21°C° 0 mm 1 m/s 635 mmHg 24%
    07:00 +25°C° 0 mm 1 m/s 636 mmHg 20%
    08:00 +28°C° 0 mm 1 m/s 638 mmHg 16%
    09:00 +32°C° 0 mm 1 m/s 639 mmHg 13%
    10:00 +34°C° 0 mm 1 m/s 639 mmHg 11%
    11:00 +36°C° 0 mm 1 m/s 639 mmHg 9%
    12:00 +39°C° 0 mm 1 m/s 640 mmHg 7%
    13:00 +39°C° 0 mm 2 m/s 639 mmHg 7%
    14:00 +39°C° 0 mm 3 m/s 639 mmHg 7%
    15:00 +41°C° 0 mm 4 m/s 638 mmHg 6%
    16:00 +38°C° 0 mm 4 m/s 637 mmHg 8%
    17:00 +36°C° 0 mm 3 m/s 637 mmHg 10%
    18:00 +34°C° 0 mm 3 m/s 636 mmHg 11%
    19:00 +31°C° 0 mm 3 m/s 636 mmHg 14%
    20:00 +29°C° 0 mm 3 m/s 636 mmHg 17%
    21:00 +27°C° 0 mm 2 m/s 636 mmHg 19%
    22:00 +26°C° 0 mm 2 m/s 635 mmHg 21%
    23:00 +25°C° 0 mm 1 m/s 635 mmHg 23%

    31 Agosto, Sábado

    Tempo Temperatura Precipitação Vento Pressão Humidade
    00:00 +24°C° 0 mm 1 m/s 635 mmHg 24%
    01:00 +23°C° 0 mm 1 m/s 634 mmHg 27%
    02:00 +21°C° 0 mm 0 m/s 634 mmHg 29%
    03:00 +20°C° 0 mm 0 m/s 633 mmHg 31%
    04:00 +20°C° 0 mm 0 m/s 633 mmHg 30%
    05:00 +22°C° 0 mm 1 m/s 634 mmHg 28%
    06:00 +23°C° 0 mm 1 m/s 634 mmHg 27%
    07:00 +26°C° 0 mm 1 m/s 635 mmHg 22%
    08:00 +30°C° 0 mm 1 m/s 636 mmHg 18%
    09:00 +34°C° 0 mm 1 m/s 638 mmHg 13%
    10:00 +36°C° 0 mm 2 m/s 638 mmHg 12%
    11:00 +38°C° 0 mm 4 m/s 638 mmHg 11%
    12:00 +41°C° 0 mm 5 m/s 638 mmHg 9%
    13:00 +41°C° 0 mm 6 m/s 638 mmHg 9%
    14:00 +41°C° 0 mm 7 m/s 638 mmHg 9%
    15:00 +42°C° 0 mm 9 m/s 637 mmHg 9%
    16:00 +39°C° 0 mm 7 m/s 637 mmHg 10%
    17:00 +36°C° 0 mm 6 m/s 636 mmHg 12%
    18:00 +34°C° 0 mm 5 m/s 636 mmHg 13%
    19:00 +30°C° 0 mm 4 m/s 636 mmHg 16%
    20:00 +28°C° 0 mm 2 m/s 635 mmHg 19%
    21:00 +25°C° 0 mm 1 m/s 635 mmHg 22%
    22:00 +24°C° 0 mm 1 m/s 635 mmHg 23%
    23:00 +23°C° 0 mm 1 m/s 634 mmHg 25%
    Mostrar mais